Location: ???????
(44.5792°N, 33.9920°E)
Time: 12:17:20
(UTC+00:00)

Daily predictions for brighter satellites

Satellite Brightness Start Highest point End
(mag) Time Altitude Azimuth Time Altitude Azimuth Time Altitude Azimuth
Cosmos 1190 Rocket 4.4 17:13:41 10° S 17:18:40 44° ESE 17:23:42 10° NNE
Lacrosse 5 3.3 17:17:00 10° NW 17:21:26 29° NNE 17:25:49 10° E
Cosmos 2278 4.3 17:17:33 10° NNW 17:23:01 44° ENE 17:28:26 10° SE
Cosmos 2322 Rocket 4.3 17:20:47 10° N 17:23:37 14° NE 17:26:26 10° ENE
BREEZE-M DEB (TANK) 3.1 17:19:18 10° WNW 17:26:02 48° SW 17:28:51 10° SE
Cosmos 1633 Rocket 4.0 17:23:33 10° SSE 17:27:18 28° E 17:31:04 10° NNE
Cosmos 1140 Rocket 3.7 17:23:26 10° S 17:28:30 52° ESE 17:33:35 10° NNE
MOS 1 Rocket 3.9 17:24:25 10° N 17:29:52 75° WNW 17:35:06 10° SSW
MetOp-A 4.2 17:24:38 10° SSE 17:29:56 67° ENE 17:35:16 10° N
Intercosmos 25 3.4 17:27:23 10° N 17:31:06 46° ENE 17:34:11 10° SSE
Cosmos 1818 3.8 17:26:02 10° NW 17:31:29 72° WSW 17:36:52 10° SSE
ATLAS 5 CENTAUR R/B 3.5 17:30:06 10° NW 17:35:39 43° WSW 17:41:58 10° S
USA 276 3.9 17:35:30 10° WNW 17:38:21 29° N 17:41:10 10° ENE
Cosmos 921 Rocket 4.3 17:37:40 10° N 17:41:07 24° ENE 17:44:07 12° ESE
X-37B 0.6 17:39:26 10° W 17:42:37 81° N 17:45:48 10° E
Cosmos 1707 Rocket 3.6 17:38:52 10° N 17:43:09 60° E 17:47:25 10° SSE
Cosmos 1980 Rocket 2.4 17:38:37 10° NNW 17:44:14 56° ENE 17:49:29 11° SE
FALCON 9 DEB 4.0 17:41:42 10° WSW 17:45:07 53° NNW 17:48:34 10° NE
NOSS 3-2 (A) 3.5 17:42:56 10° SSW 17:48:19 49° ESE 17:54:22 10° NE
Genesis I 3.2 17:45:34 10° NNW 17:49:27 73° NE 17:52:42 14° SE
USA 186 3.5 17:48:32 10° SSW 17:50:22 21° W 17:52:12 10° NW
OBJECT-B 0.8 17:47:23 10° SSE 17:50:39 74° ENE 17:53:57 10° N
CZ-2C R/B 3.8 17:46:56 10° NNE 17:51:28 57° E 17:55:53 10° S
USA 267 3.7 17:47:51 10° ENE 17:53:48 36° SE 17:59:44 10° SSW
Cosmos 1833 Rocket 3.2 17:48:26 10° SW 17:54:00 66° WNW 17:59:38 10° NNE
Cosmos 1470 Rocket 4.4 17:51:08 10° SSE 17:54:57 30° E 17:58:47 10° NNE
Cosmos 1697 Rocket 3.1 17:52:00 10° NNW 17:57:34 65° WSW 18:03:06 10° SSE
NOSS 3-2 (C) 3.9 17:52:40 10° S 17:57:42 35° ESE 18:03:19 10° NE
H-2A R/B 4.2 17:56:14 10° SSW 18:00:25 25° W 18:04:34 10° NW
SJ-6B 4.0 17:57:14 10° S 18:01:05 43° W 18:04:54 10° NNW
Sich 1 3.4 17:57:00 10° SSW 18:01:24 69° W 18:05:51 10° N
Shenzhou-11 Module 4.0 18:01:15 10° SW 18:02:03 11° SSW 18:02:53 10° S
Cosmos 1184 Rocket 3.0 18:00:36 10° S 18:03:46 46° E 18:06:57 10° NNE
Meteor 1-4 Rocket 2.3 18:01:04 10° N 18:04:32 72° E 18:07:15 15° SSE
Cosmos 1934 Rocket 4.0 17:58:43 10° S 18:05:00 68° E 18:11:20 10° NNE
Cosmos 405 Rocket 3.6 18:07:15 21° SE 18:08:41 27° E 18:11:53 10° NNE
Cosmos 1862 Rocket 3.7 18:06:11 10° N 18:10:36 57° ENE 18:13:46 18° SSE
USA 32 4.3 18:07:14 11° SSE 18:12:01 48° E 18:17:02 10° NNE
Meteor 2-20 4.4 18:07:19 10° N 18:13:32 89° E 18:19:39 10° S
Cosmos 1437 Rocket 4.3 18:10:48 10° NNE 18:13:37 19° ENE 18:14:34 18° E
Cosmos 1812 4.3 18:10:24 10° NNW 18:13:54 34° W 18:17:24 10° SSW
Resurs 01 Rocket 1.6 18:10:13 14° SSE 18:14:02 81° ENE 18:18:30 10° N
Cosmos 676 Rocket 4.0 18:11:55 10° SSW 18:17:14 86° ESE 18:22:37 10° NNE
NOSS 2 (A) 4.1 18:14:57 10° NNW 18:17:28 60° NE 18:17:59 44° ESE
Meteor 1-27 Rocket 4.3 18:12:41 10° NNW 18:18:34 65° W 18:24:25 10° S
ERS-1 Rocket 4.2 18:16:12 18° ESE 18:18:35 26° ENE 18:22:40 10° N
GP-B 3.2 18:20:12 10° N 18:24:37 59° E 18:27:27 21° SSE
SPOT 3 Rocket 4.1 18:21:42 10° S 18:26:49 58° WSW 18:31:58 10° NNW
Cosmos 192 4.4 18:23:14 10° NNW 18:28:10 81° WSW 18:31:31 21° SSE
ATLAS 3B R/B 3.6 18:27:32 22° ESE 18:28:20 22° ESE 18:33:14 10° ENE
USA 234 4.1 18:23:26 12° E 18:29:08 44° NNE 18:35:16 10° NW
Okean 1 3.9 18:25:19 10° N 18:29:09 40° ENE 18:30:28 31° ESE
Cosmos 1867 4.2 18:25:04 10° SW 18:30:26 59° NW 18:35:51 10° NNE
Cosmos 468 Rocket 4.3 18:27:29 10° NNW 18:32:43 55° ENE 18:35:20 28° SE
Cosmos 1933 Rocket 3.6 18:33:08 24° SSE 18:35:36 57° E 18:39:58 10° NNE
SL-4 R/B 3.5 18:37:04 10° WNW 18:40:40 32° NNW 18:44:02 10° NE
IGS 5A 3.4 18:39:20 33° SSE 18:41:04 71° ENE 18:45:12 10° N
Meteor 1-14 Rocket 4.5 18:40:47 23° SSE 18:44:14 53° E 18:50:02 10° NNE
MetOp-B 4.2 18:41:17 22° S 18:44:53 82° WSW 18:50:17 10° NNW
Cosmos 1869 Rocket 4.5 18:46:45 30° E 18:46:56 30° E 18:50:48 10° NNE
USA 238 DEB 3.8 18:40:45 10° SW 18:47:21 75° NW 18:54:17 10° NE
USA 238 3.8 18:40:52 10° SW 18:47:28 76° NW 18:54:24 10° NE
Spot 2 Rocket 3.4 18:45:22 29° SSE 18:48:04 81° ENE 18:53:11 10° NNW
SL-16 R/B 2.4 18:44:23 10° NNW 18:50:00 57° ENE 18:52:22 33° ESE
Cosmos 2219 Rocket 4.4 18:47:20 10° N 18:50:02 13° NE 18:52:44 10° ENE
Cosmos 1741 Rocket 3.9 18:47:38 18° S 18:51:34 64° ESE 18:56:48 10° NNE
BREEZE-M DEB (TANK) 3.6 18:50:42 10° WNW 18:53:36 47° N 19:01:24 10° E
CENTAUR R/B 2.4 18:52:15 10° SSW 18:58:05 84° SE 19:05:05 10° NE
Cosmos 2082 Rocket 3.8 18:53:00 10° WSW 18:58:14 37° NW 19:03:29 10° NNE
Okean 1-7 3.1 18:54:06 10° N 18:58:22 57° ENE 18:59:08 49° ESE
Meteor 1-25 Rocket 4.4 18:53:09 10° SSW 18:58:42 71° WNW 19:04:21 10° N
Meteor 1-18 Rocket 4.1 18:53:20 10° N 18:58:56 85° E 19:01:31 33° SSE
Cosmos 1703 Rocket 3.5 18:54:50 10° N 18:59:09 66° E 19:00:06 50° SE
Cosmos 1605 Rocket 4.1 18:55:17 10° SSW 19:01:22 72° W 19:07:28 10° N
Terra 2.5 19:01:13 34° E 19:02:09 38° ENE 19:06:33 10° N
Cosmos 2100 Rocket 4.2 19:00:45 35° SE 19:02:49 48° E 19:08:42 10° NNE
Lacrosse 5 1.8 18:59:49 10° NW 19:04:55 88° SW 19:06:26 47° SE
Cosmos 1238 Rocket 3.3 19:05:20 33° WSW 19:06:03 40° W 19:08:53 10° N
Cosmos 2322 Rocket 2.3 19:03:10 10° NNW 19:08:50 65° ENE 19:10:41 42° SE
Cosmos 2173 Rocket 4.1 19:08:24 38° SE 19:10:18 51° E 19:16:12 10° NNE
Cosmos 1763 Rocket 3.5 19:05:16 10° NNW 19:10:37 83° WSW 19:12:26 43° SSE
USA 276 2.9 19:11:58 10° WNW 19:14:46 49° N 19:14:46 49° N
X-37B 1.9 19:16:06 10° W 19:18:09 36° W 19:18:09 36° W
Cosmos 921 Rocket 4.4 19:15:42 10° NW 19:19:25 31° W 19:20:55 24° SW
Cosmos 2360 Rocket 2.8 19:14:02 10° NNW 19:19:27 44° ENE 19:20:54 37° E
Cosmos 2084 Rocket 3.7 19:17:00 10° SW 19:21:10 67° NW 19:25:27 10° NE
Cosmos 2242 Rocket 4.3 19:18:38 10° NNW 19:22:55 49° W 19:24:16 36° SW
Cosmos 1500 3.5 19:25:02 55° NE 19:25:02 55° NE 19:28:05 10° NNE
Cosmos 1459 Rocket 4.0 19:23:40 43° SSE 19:25:45 68° E 19:32:05 10° NNE
Cosmos 44 3.3 19:22:22 10° NNW 19:27:20 83° NE 19:28:10 63° SE
Cosmos 1980 Rocket 4.1 19:23:27 10° NW 19:27:46 23° W 19:31:16 13° SW
Cosmos 2016 Rocket 4.2 19:28:46 45° ESE 19:29:56 50° E 19:36:03 10° NNE
Cosmos 1666 4.3 19:37:05 25° NE 19:37:05 25° NE 19:38:58 10° NNE
SAR-Lupe-2 4.1 19:32:47 10° N 19:35:52 59° NNW 19:35:52 59° NNW
USA 267 3.4 19:30:36 10° NE 19:37:07 73° NW 19:43:37 10° WSW
COSMOS 2428 4.3 19:33:33 10° N 19:38:09 24° NE 19:39:52 21° ENE
Cosmos 967 Rocket 4.4 19:33:26 10° NNW 19:39:51 82° NE 19:41:23 55° SE
SPOT 5 2.7 19:40:40 64° WSW 19:40:54 65° WSW 19:45:17 10° NNW
Cosmos 2221 Rocket 3.9 19:40:01 10° N 19:44:04 57° NE 19:44:04 57° NE
SL-27 R/B 4.0 19:46:33 32° WNW 19:46:33 32° WNW 19:49:30 10° N
NOSS 3-2 (C) 4.4 19:42:47 10° WSW 19:48:21 47° NW 19:54:45 10° NNE
Cosmos 540 Rocket 3.4 19:44:17 10° NNW 19:49:28 75° WSW 19:49:56 69° SSW
Cosmos 1437 Rocket 4.2 19:46:35 10° NNW 19:49:54 30° W 19:49:57 30° W
Lacrosse 4 Rocket 3.3 19:53:40 20° NE 19:53:40 20° NE 19:55:08 10° NE
Resurs 01 Rocket 4.5 19:50:28 10° W 19:51:06 10° W 19:51:44 10° W
Cosmos 2061 Rocket 3.9 19:52:30 61° SSE 19:53:33 75° E 19:59:44 10° NNE
Cosmos 2333 Rocket 3.1 19:51:29 10° NNW 19:56:50 37° NE 19:57:45 35° ENE
ERS-1 Rocket 3.7 19:56:12 38° SW 19:57:08 43° W 20:01:55 10° NNW
Meteor 1-11 Rocket 3.6 20:00:05 74° SSE 20:00:32 80° E 20:06:20 10° NNE
Cosmos 2233 Rocket 4.4 20:01:24 47° E 20:01:32 47° E 20:07:32 10° NNE
Cosmos 1802 Rocket 4.0 20:00:36 51° SSW 20:02:22 80° W 20:08:45 10° N
Cosmos 1066 Rocket 4.3 20:00:11 10° N 20:05:49 62° ENE 20:05:53 62° E
Cosmos 841 Rocket 3.9 20:02:07 10° NNW 20:07:11 51° WSW 20:07:29 50° WSW
USA 234 3.1 20:10:47 63° SSE 20:11:53 78° SW 20:18:28 10° NW
Okean 3 4.4 20:12:54 10° NNW 20:16:26 44° WNW 20:16:26 44° WNW
Cosmos 1816 Rocket 4.3 20:11:42 10° N 20:17:59 89° W 20:18:35 75° S
ATLAS 3B R/B 2.7 20:14:38 28° SW 20:18:18 76° NW 20:25:00 10° NE
Thor Agena Rocket 4.4 20:14:01 10° NNE 20:17:38 38° ENE 20:17:38 38° ENE
SL-4 R/B 3.8 20:17:39 10° NW 20:20:23 27° N 20:20:23 27° N
Spot 4 4.4 20:24:31 52° NE 20:24:31 52° NE 20:28:33 10° N
Iridium 4 Rocket 4.3 20:25:27 35° WNW 20:25:27 35° WNW 20:28:59 10° NNW
Cosmos 839 Rocket 4.5 20:27:11 59° SE 20:27:38 60° ESE 20:36:16 10° NE
Meteor 1-23 Rocket 4.2 20:25:47 10° NNW 20:31:37 86° W 20:31:37 86° W
SL-16 R/B 3.8 20:29:20 10° NW 20:33:39 23° W 20:34:14 22° WSW
Cosmos 2219 Rocket 2.4 20:29:32 10° NNW 20:35:05 63° NE 20:35:05 63° NE
Cosmos 1536 4.4 20:36:28 33° NNW 20:36:28 33° NNW 20:39:03 10° N
MOS 1-B Rocket 3.8 20:33:39 10° NNE 20:39:17 79° WNW 20:39:23 79° W
Terra 3.5 20:40:06 25° W 20:40:06 25° W 20:43:55 10° NW
ATLAS 5 CENTAUR R/B 2.9 20:37:02 10° NW 20:39:34 58° WNW 20:39:34 58° WNW
Cosmos 2322 3.7 20:36:24 10° NNW 20:41:39 75° NW 20:41:39 75° NW
Tsikada Rocket 4.1 20:36:43 10° NNW 20:43:00 66° W 20:43:25 65° WSW
Lacrosse 5 4.1 20:44:10 10° W 20:45:36 14° W 20:45:36 14° W
Meteor 2-11 Rocket 4.4 20:48:23 73° ENE 20:48:23 73° ENE 20:54:10 10° NNE
CENTAUR R/B 4.5 20:44:15 10° W 20:49:41 29° NNW 20:55:57 10° NNE
Cosmos 489 Rocket 4.3 20:44:56 10° NNW 20:51:15 85° ENE 20:51:15 85° ENE
Geosat 4.4 20:53:03 62° NNW 20:53:03 62° NNW 20:57:13 10° NNW
Cosmos 2322 Rocket 4.0 20:48:19 10° NW 20:52:20 20° W 20:52:29 20° WSW
Cosmos 1486 Rocket 4.4 20:53:32 61° NNW 20:53:32 61° NNW 20:58:07 10° NNE
ALOS 2 3.9 20:57:42 38° N 20:57:42 38° N 21:00:32 10° N
SL-16 R/B 4.4 20:58:13 10° N 21:01:59 18° NE 21:04:29 14° ENE
Cosmos 2360 Rocket 3.5 20:58:23 10° NW 21:02:39 29° W 21:02:39 29° W
Cosmos 968 Rocket 4.3 21:18:03 46° NW 21:18:03 46° NW 21:22:32 10° N
Cosmos 2297 Rocket 3.6 21:20:13 28° ENE 21:20:13 28° ENE 21:23:27 10° NE
COSMOS 2428 3.2 21:17:13 10° NNW 21:21:52 54° WNW 21:21:52 54° WNW
Cosmos 44 Rocket 4.5 21:19:04 10° NW 21:22:14 39° NW 21:22:14 39° NW
Cosmos 1980 4.1 21:19:10 10° NNW 21:24:20 56° NE 21:24:20 56° NE
Cosmos 2219 4.2 21:31:18 38° ENE 21:31:18 38° ENE 21:35:05 10° NE
Lacrosse 4 Rocket 3.6 21:29:56 21° NW 21:29:58 21° NW 21:33:10 10° N
Cosmos 2237 Rocket 2.6 21:27:27 10° NNW 21:32:28 59° NNE 21:32:28 59° NNE
Timation 2 Rocket 4.0 21:41:09 71° NNE 21:41:09 71° NNE 21:46:29 10° NNE
Cosmos 2333 Rocket 3.4 21:35:50 10° NW 21:39:44 33° WNW 21:39:44 33° WNW
Cosmos 1464 Rocket 4.1 21:54:49 64° WNW 21:54:49 64° WNW 22:00:42 10° N
CZ-2D R/B 4.2 22:03:40 10° NE 22:06:57 17° E 22:06:57 17° E
Nadezhda 4 Rocket 4.1 22:01:42 10° NNW 22:07:27 69° WNW 22:07:27 69° WNW
Cosmos 2227 Rocket 2.6 22:09:36 58° NE 22:09:36 58° NE 22:14:11 10° NNE
Helios 1B rocket 4.5 22:06:50 10° NNE 22:08:43 25° NE 22:08:43 25° NE
SJ 16-02 3.3 22:18:08 24° NE 22:18:08 24° NE 22:20:16 10° NE
Meteor 2-13 Rocket 4.5 22:10:59 10° N 22:16:50 75° NE 22:16:50 75° NE
Cosmos 2219 Rocket 4.2 22:14:32 10° NW 22:16:47 18° WNW 22:16:47 18° WNW
Cosmos 2034 Rocket 4.4 22:26:37 52° WNW 22:26:37 52° WNW 22:32:42 10° N
Cosmos 1092 Rocket 3.9 22:21:19 10° N 22:27:10 77° NW 22:27:10 77° NW
Cosmos 2344 4.4 22:23:57 10° NW 22:33:43 79° WSW 22:39:29 40° SSE
Cosmos 2082 4.0 22:34:49 59° ENE 22:34:49 59° ENE 22:39:34 10° NNE
Cosmos 923 Rocket 4.4 22:34:18 10° NNW 22:38:48 62° N 22:38:48 62° N
Resurs 1-4 Rocket 3.2 22:39:56 10° NNE 22:44:27 33° E 22:44:27 33° E
SL-16 R/B 2.3 22:41:13 10° NNW 22:46:19 72° NNW 22:46:19 72° NNW
Cosmos 2263 Rocket 3.8 22:49:31 23° E 22:49:31 23° E 22:53:46 10° NE
SL-16 R/B 3.0 22:52:56 43° ESE 22:54:34 55° ENE 23:00:39 10° N
NOSS 3-1 (C) 3.4 22:57:24 63° E 22:57:24 63° E 23:03:06 10° NE
Cosmos 2297 Rocket 3.1 23:02:01 38° WNW 23:02:21 38° NW 23:07:38 10° NNE
Cosmos 1655 Rocket 4.2 22:57:31 10° N 23:03:44 62° E 23:04:50 53° ESE
Meteor 1-15 Rocket 4.5 23:05:38 58° WNW 23:05:38 58° WNW 23:10:49 10° N
Cosmos 1461 4.0 23:13:38 46° N 23:13:38 46° N 23:17:15 10° NNE
Cosmos 1607 4.4 23:08:26 10° NW 23:13:36 48° W 23:13:36 48° W
IRAS Rocket 4.2 23:16:04 70° ESE 23:16:35 77° ENE 23:22:12 10° NNW
Cosmos 2237 Rocket 4.2 23:12:35 10° NW 23:14:16 16° WNW 23:14:16 16° WNW
Meteor 1-24 Rocket 3.5 23:11:39 10° N 23:16:49 82° N 23:16:49 82° N
ADEOS II 3.5 23:14:03 10° NE 23:18:29 27° E 23:19:37 25° ESE
Cosmos 2279 Rocket 3.9 23:20:54 68° WSW 23:21:17 70° W 23:27:30 10° N
Timation 1 Rocket 4.3 23:23:24 69° SE 23:23:48 72° ESE 23:29:45 10° NNE
BREEZE-M TANK 3.7 23:25:51 38° E 23:25:51 38° E 23:29:43 10° E
Cosmos 1937 Rocket 3.5 23:24:35 73° ESE 23:24:35 73° ESE 23:29:51 10° NNE
Cosmos 1726 4.1 23:27:44 23° ENE 23:27:44 23° ENE 23:30:14 10° NE
Cosmos 1603 4.3 23:21:44 10° NNW 23:27:23 54° ENE 23:30:32 25° SE
Cosmos 1544 Rocket 4.3 23:28:26 49° E 23:28:26 49° E 23:32:29 10° NNE
Cosmos 990 Rocket 4.0 23:29:02 70° NW 23:29:02 70° NW 23:34:01 10° NNE
Cosmos 2180 Rocket 4.3 23:28:40 70° SW 23:29:15 77° W 23:35:25 10° N
Cosmos 2292 Rocket 4.3 23:23:20 10° N 23:30:29 84° E 23:31:25 65° SSE
GEOS 3 Rocket 3.6 23:25:14 10° NE 23:30:40 75° SE 23:30:53 74° SSE
Cosmos 2112 Rocket 4.5 23:28:18 10° NNW 23:32:22 48° WNW 23:32:22 48° WNW
USA 229 DEB 3.5 23:32:46 63° SW 23:33:57 85° NW 23:40:52 10° NE
USA 229 3.5 23:32:52 63° SW 23:34:01 85° NW 23:40:55 10° NE
Cosmos 1758 4.1 23:36:38 50° NE 23:36:38 50° NE 23:39:53 10° NNE
Cosmos 1340 Rocket 3.6 23:37:29 50° NE 23:37:29 50° NE 23:40:32 10° NNE
COBE Rocket 4.3 23:36:41 50° ESE 23:37:21 55° ENE 23:41:54 10° N
CZ-4B R/B 3.9 23:32:51 10° NNE 23:37:27 48° E 23:37:48 47° ESE
Cosmos 1898 Rocket 3.6 23:39:48 62° WNW 23:39:52 62° WNW 23:45:03 10° NNE
NOSS 2-3 (C) 3.7 23:44:18 77° ENE 23:44:18 77° ENE 23:48:57 10° NE
NOSS 3-1 (A) 3.1 23:44:33 70° SSW 23:45:16 86° SE 23:51:37 10° NE
Cosmos 1943 3.5 23:41:32 10° NNW 23:47:08 64° ENE 23:50:50 22° SE
CZ-2D R/B 2.1 23:42:11 10° N 23:47:40 72° WNW 23:48:16 66° WSW
ARIANE 5 R/B 4.2 23:43:58 10° NE 23:48:22 27° E 23:50:53 19° SE
Meteor 2-5 Rocket 4.5 23:43:53 10° NNW 23:48:23 36° WNW 23:48:23 36° WNW
Meteor 1-22 Rocket 4.4 23:50:36 48° W 23:50:44 48° WNW 23:55:57 10° N
Exosat Rocket 4.3 23:48:30 46° SSW 23:51:13 87° ESE 23:57:25 10° NNE
Cosmos 1953 3.1 23:52:43 45° E 23:52:50 45° E 23:56:43 10° NNE
Cosmos 2227 Rocket 3.9 23:51:25 18° WNW 23:53:12 21° NW 23:57:25 10° N
SJ 16-02 3.0 23:55:08 24° NW 23:55:08 24° NW 23:58:30 10° N
